Time,TemperatureF,DewpointF,PressureIn,WindDirection,WindDirectionDegrees,WindSpeedMPH,WindSpeedGustMPH,Humidity,HourlyPrecipIn,Conditions,Clouds,dailyrainin,SoftwareType,DateUTC
2013-01-19 00:00:00,35.9,30.3,30.51,ESE,117,0.0,1.0,80,0.00,,---,0.00,VWS V14.01,2013-01-19 05:00:00,
2013-01-19 00:05:00,35.7,30.1,30.51,ESE,117,0.0,0.0,80,0.00,,---,0.00,VWS V14.01,2013-01-19 05:05:00,
2013-01-19 00:07:00,35.6,30.0,30.51,ESE,117,0.0,0.0,80,0.00,,---,0.00,VWS V14.01,2013-01-19 05:07:00,
2013-01-19 00:09:00,35.6,30.4,30.51,ESE,117,0.0,0.0,81,0.00,,---,0.00,VWS V14.01,2013-01-19 05:09:00,
2013-01-19 00:15:00,35.3,29.8,30.51,ESE,117,0.0,0.0,80,0.00,,---,0.00,VWS V14.01,2013-01-19 05:15:00,
2013-01-19 00:17:00,35.2,30.0,30.51,ESE,117,0.0,0.0,81,0.00,,---,0.00,VWS V14.01,2013-01-19 05:17:00,
2013-01-19 00:23:00,34.8,29.6,30.51,ESE,117,0.0,0.0,81,0.00,,---,0.00,VWS V14.01,2013-01-19 05:23:00,
2013-01-19 00:29:00,34.4,29.8,30.51,ESE,117,0.0,0.0,83,0.00,,---,0.00,VWS V14.01,2013-01-19 05:29:00,
2013-01-19 00:30:00,34.4,29.8,30.51,ESE,117,0.0,0.0,83,0.00,,---,0.00,VWS V14.01,2013-01-19 05:30:00,
2013-01-19 00:35:00,34.2,29.6,30.51,ESE,117,0.0,0.0,83,0.00,,---,0.00,VWS V14.01,2013-01-19 05:35:00,
2013-01-19 00:41:00,34.2,29.3,30.51,ESE,117,0.0,0.0,82,0.00,,---,0.00,VWS V14.01,2013-01-19 05:41:00,
2013-01-19 00:47:00,34.4,29.5,30.51,ESE,117,0.0,0.0,82,0.00,,---,0.00,VWS V14.01,2013-01-19 05:47:00,
2013-01-19 00:53:00,34.3,29.7,30.51,ESE,117,0.0,0.0,83,0.00,,---,0.00,VWS V14.01,2013-01-19 05:53:00,
2013-01-19 01:00:00,33.8,29.5,30.51,ESE,117,0.0,1.0,84,0.00,,---,0.00,VWS V14.01,2013-01-19 06:00:00,
2013-01-19 01:06:00,32.5,28.8,30.51,NE,34,1.0,2.0,86,0.00,,---,0.00,VWS V14.01,2013-01-19 06:06:00,
2013-01-19 01:12:00,31.6,28.7,30.52,NE,34,0.0,2.0,89,0.00,,---,0.00,VWS V14.01,2013-01-19 06:12:00,
2013-01-19 01:18:00,31.2,28.6,30.52,NE,34,0.0,2.0,90,0.00,,---,0.00,VWS V14.01,2013-01-19 06:18:00,
2013-01-19 01:24:00,31.1,28.8,30.52,NE,34,0.0,2.0,91,0.00,,---,0.00,VWS V14.01,2013-01-19 06:24:00,
2013-01-19 01:30:00,30.9,28.6,30.52,NNE,33,1.0,2.0,91,0.00,,---,0.00,VWS V14.01,2013-01-19 06:30:00,
2013-01-19 01:36:00,30.7,28.7,30.52,North,358,0.0,2.0,92,0.00,,---,0.00,VWS V14.01,2013-01-19 06:36:00,
2013-01-19 01:42:00,30.6,28.6,30.52,North,359,0.0,2.0,92,0.00,,---,0.00,VWS V14.01,2013-01-19 06:42:00,
2013-01-19 01:48:00,30.4,28.4,30.53,North,358,0.0,2.0,92,0.00,,---,0.00,VWS V14.01,2013-01-19 06:48:00,
2013-01-19 01:54:00,30.4,28.6,30.52,North,359,0.0,2.0,93,0.00,,---,0.00,VWS V14.01,2013-01-19 06:54:00,
2013-01-19 02:00:00,30.4,28.6,30.52,North,358,0.0,2.0,93,0.00,,---,0.00,VWS V14.01,2013-01-19 07:00:00,
2013-01-19 02:06:00,30.7,28.7,30.52,North,359,0.0,1.0,92,0.00,,---,0.00,VWS V14.01,2013-01-19 07:06:00,
2013-01-19 02:12:00,31.2,28.6,30.52,North,359,0.0,1.0,90,0.00,,---,0.00,VWS V14.01,2013-01-19 07:12:00,
2013-01-19 02:19:00,31.6,28.7,30.52,North,359,0.0,1.0,89,0.00,,---,0.00,VWS V14.01,2013-01-19 07:19:00,
2013-01-19 02:25:00,32.5,28.8,30.52,North,360,0.0,1.0,86,0.00,,---,0.00,VWS V14.01,2013-01-19 07:25:00,
2013-01-19 02:30:00,32.9,28.6,30.52,North,359,0.0,1.0,84,0.00,,---,0.00,VWS V14.01,2013-01-19 07:30:00,
2013-01-19 02:37:00,33.1,28.8,30.53,North,360,0.0,1.0,84,0.00,,---,0.00,VWS V14.01,2013-01-19 07:37:00,
2013-01-19 02:43:00,32.0,28.3,30.52,North,359,0.0,1.0,86,0.00,,---,0.00,VWS V14.01,2013-01-19 07:43:00,
2013-01-19 02:49:00,31.3,28.4,30.53,North,356,1.0,2.0,89,0.00,,---,0.00,VWS V14.01,2013-01-19 07:49:00,
2013-01-19 02:55:00,30.9,28.3,30.52,North,351,2.0,2.0,90,0.00,,---,0.00,VWS V14.01,2013-01-19 07:55:00,
2013-01-19 03:00:00,30.6,28.3,30.52,NNW,346,1.0,3.0,91,0.00,,---,0.00,VWS V14.01,2013-01-19 08:00:00,
2013-01-19 03:07:00,30.4,28.1,30.52,NNW,346,1.0,2.0,91,0.00,,---,0.00,VWS V14.01,2013-01-19 08:07:00,
2013-01-19 03:13:00,30.0,27.7,30.52,NNW,346,1.0,2.0,91,0.00,,---,0.00,VWS V14.01,2013-01-19 08:13:00,
2013-01-19 03:19:00,29.8,27.8,30.53,NNW,346,2.0,2.0,92,0.00,,---,0.00,VWS V14.01,2013-01-19 08:19:00,
2013-01-19 03:25:00,30.0,28.2,30.52,NNW,346,0.0,2.0,93,0.00,,---,0.00,VWS V14.01,2013-01-19 08:25:00,
2013-01-19 03:30:00,30.0,28.0,30.52,NNW,346,0.0,2.0,92,0.00,,---,0.00,VWS V14.01,2013-01-19 08:30:00,
2013-01-19 03:31:00,30.0,28.0,30.52,NNW,346,0.0,0.0,92,0.00,,---,0.00,VWS V14.01,2013-01-19 08:31:00,
2013-01-19 03:37:00,30.0,28.0,30.52,NNW,346,0.0,1.0,92,0.00,,---,0.00,VWS V14.01,2013-01-19 08:37:00,
2013-01-19 03:43:00,29.7,27.7,30.52,NNW,340,1.0,2.0,92,0.00,,---,0.00,VWS V14.01,2013-01-19 08:43:00,
2013-01-19 03:49:00,29.5,27.5,30.52,NNW,340,0.0,2.0,92,0.00,,---,0.00,VWS V14.01,2013-01-19 08:49:00,
2013-01-19 03:55:00,29.6,27.8,30.52,NNW,340,0.0,2.0,93,0.00,,---,0.00,VWS V14.01,2013-01-19 08:55:00,
2013-01-19 04:00:00,29.6,27.8,30.52,NNW,340,0.0,2.0,93,0.00,,---,0.00,VWS V14.01,2013-01-19 09:00:00,
2013-01-19 04:02:00,29.6,27.8,30.52,NNW,340,0.0,0.0,93,0.00,,---,0.00,VWS V14.01,2013-01-19 09:02:00,
2013-01-19 04:08:00,29.3,27.3,30.52,NNW,336,2.0,2.0,92,0.00,,---,0.00,VWS V14.01,2013-01-19 09:08:00,
2013-01-19 04:14:00,29.0,27.2,30.52,NW,318,0.0,2.0,93,0.00,,---,0.00,VWS V14.01,2013-01-19 09:14:00,
2013-01-19 04:20:00,29.0,27.2,30.52,NW,319,0.0,2.0,93,0.00,,---,0.00,VWS V14.01,2013-01-19 09:20:00,
2013-01-19 04:26:00,28.7,26.9,30.52,NNW,334,0.0,2.0,93,0.00,,---,0.00,VWS V14.01,2013-01-19 09:26:00,
2013-01-19 04:30:00,28.8,27.0,30.51,NNW,334,0.0,2.0,93,0.00,,---,0.00,VWS V14.01,2013-01-19 09:30:00,
2013-01-19 04:32:00,28.8,27.3,30.51,NNW,335,0.0,0.0,94,0.00,,---,0.00,VWS V14.01,2013-01-19 09:32:00,
2013-01-19 04:38:00,28.8,27.0,30.51,NNW,328,0.0,2.0,93,0.00,,---,0.00,VWS V14.01,2013-01-19 09:38:00,
2013-01-19 04:44:00,28.4,26.6,30.51,NNW,328,0.0,2.0,93,0.00,,---,0.00,VWS V14.01,2013-01-19 09:44:00,
2013-01-19 04:50:00,28.7,27.2,30.51,NNW,329,1.0,2.0,94,0.00,,---,0.00,VWS V14.01,2013-01-19 09:50:00,
2013-01-19 04:56:00,28.6,26.8,30.51,NNW,327,0.0,2.0,93,0.00,,---,0.00,VWS V14.01,2013-01-19 09:56:00,
2013-01-19 05:00:00,28.4,26.6,30.51,NNW,327,0.0,2.0,93,0.00,,---,0.00,VWS V14.01,2013-01-19 10:00:00,
2013-01-19 05:02:00,28.4,26.6,30.52,NNW,327,0.0,0.0,93,0.00,,---,0.00,VWS V14.01,2013-01-19 10:02:00,
2013-01-19 05:08:00,28.4,26.9,30.51,NNW,327,0.0,1.0,94,0.00,,---,0.00,VWS V14.01,2013-01-19 10:08:00,
2013-01-19 05:14:00,28.3,26.8,30.51,NNW,328,0.0,1.0,94,0.00,,---,0.00,VWS V14.01,2013-01-19 10:14:00,
2013-01-19 05:20:00,28.3,26.8,30.52,NNW,329,0.0,1.0,94,0.00,,---,0.00,VWS V14.01,2013-01-19 10:20:00,
2013-01-19 05:26:00,28.3,26.8,30.52,NNW,328,0.0,1.0,94,0.00,,---,0.00,VWS V14.01,2013-01-19 10:26:00,
2013-01-19 05:30:00,28.4,26.9,30.51,NNW,328,0.0,1.0,94,0.00,,---,0.00,VWS V14.01,2013-01-19 10:30:00,
2013-01-19 05:33:00,28.5,27.0,30.51,NNW,329,0.0,0.0,94,0.00,,---,0.00,VWS V14.01,2013-01-19 10:33:00,
2013-01-19 05:39:00,29.1,27.6,30.51,NNW,337,1.0,1.0,94,0.00,,---,0.00,VWS V14.01,2013-01-19 10:39:00,
2013-01-19 05:45:00,30.4,28.1,30.51,NNE,27,0.0,2.0,91,0.00,,---,0.00,VWS V14.01,2013-01-19 10:45:00,
2013-01-19 05:53:00,31.0,27.9,30.51,NNE,27,1.0,2.0,88,0.00,,---,0.00,VWS V14.01,2013-01-19 10:53:00,
2013-01-19 05:59:00,31.3,27.6,30.51,NNE,27,0.0,2.0,86,0.00,,---,0.00,VWS V14.01,2013-01-19 10:59:00,
2013-01-19 06:00:00,31.3,27.6,30.51,NNE,27,0.0,2.0,86,0.00,,---,0.00,VWS V14.01,2013-01-19 11:00:00,
2013-01-19 06:05:00,31.3,27.3,30.51,NNE,27,0.0,1.0,85,0.00,,---,0.00,VWS V14.01,2013-01-19 11:05:00,
2013-01-19 06:11:00,32.0,27.7,30.51,NNE,27,0.0,1.0,84,0.00,,---,0.00,VWS V14.01,2013-01-19 11:11:00,
2013-01-19 06:30:00,31.7,27.4,30.50,NNE,27,0.0,1.0,84,0.00,,---,0.00,VWS V14.01,2013-01-19 11:30:00,
2013-01-19 07:00:00,30.0,26.0,30.51,NNE,23,0.0,1.0,85,0.00,,---,0.00,VWS V14.01,2013-01-19 12:00:00,
2013-01-19 07:30:00,28.2,25.6,30.51,North,360,1.0,2.0,90,0.00,,---,0.00,VWS V14.01,2013-01-19 12:30:00,
2013-01-19 07:49:00,29.2,26.6,30.50,North,360,0.0,1.0,90,0.00,,---,0.00,VWS V14.01,2013-01-19 12:49:00,
2013-01-19 07:55:00,29.3,26.5,30.50,North,360,0.0,1.0,89,0.00,,---,0.00,VWS V14.01,2013-01-19 12:55:00,
2013-01-19 07:57:00,29.5,26.9,30.50,North,360,1.0,1.0,90,0.00,,---,0.00,VWS V14.01,2013-01-19 12:57:00,
2013-01-19 08:00:00,29.8,27.2,30.50,North,360,0.0,1.0,90,0.00,,---,0.00,VWS V14.01,2013-01-19 13:00:00,
2013-01-19 08:03:00,30.1,27.5,30.50,North,359,1.0,1.0,90,0.00,,---,0.00,VWS V14.01,2013-01-19 13:03:00,
2013-01-19 08:05:00,30.5,27.6,30.50,North,360,1.0,1.0,89,0.00,,---,0.00,VWS V14.01,2013-01-19 13:05:00,
2013-01-19 08:11:00,31.4,28.3,30.50,North,360,0.0,1.0,88,0.00,,---,0.00,VWS V14.01,2013-01-19 13:11:00,
2013-01-19 08:17:00,32.0,29.1,30.50,North,360,0.0,1.0,89,0.00,,---,0.00,VWS V14.01,2013-01-19 13:17:00,
2013-01-19 08:23:00,31.3,27.9,30.51,North,358,0.0,1.0,87,0.00,,---,0.00,VWS V14.01,2013-01-19 13:23:00,
2013-01-19 08:29:00,30.6,27.5,30.50,North,355,1.0,2.0,88,0.00,,---,0.00,VWS V14.01,2013-01-19 13:29:00,
2013-01-19 08:30:00,30.5,27.4,30.50,North,356,1.0,2.0,88,0.00,,---,0.00,VWS V14.01,2013-01-19 13:30:00,
2013-01-19 08:35:00,30.1,27.3,30.50,North,351,1.0,2.0,89,0.00,,---,0.00,VWS V14.01,2013-01-19 13:35:00,
2013-01-19 08:41:00,30.1,27.5,30.50,North,349,0.0,2.0,90,0.00,,---,0.00,VWS V14.01,2013-01-19 13:41:00,
2013-01-19 08:48:00,30.5,28.2,30.50,NNW,347,0.0,2.0,91,0.00,,---,0.00,VWS V14.01,2013-01-19 13:48:00,
2013-01-19 08:54:00,30.7,28.4,30.50,NNW,347,0.0,2.0,91,0.00,,---,0.00,VWS V14.01,2013-01-19 13:54:00,
2013-01-19 09:00:00,31.1,29.0,30.50,NNW,347,0.0,2.0,92,0.00,,---,0.00,VWS V14.01,2013-01-19 14:00:00,
2013-01-19 09:06:00,32.2,29.9,30.50,NNW,347,0.0,0.0,91,0.00,,---,0.00,VWS V14.01,2013-01-19 14:06:00,
2013-01-19 09:12:00,32.7,30.1,30.50,NW,324,2.0,2.0,90,0.00,,---,0.00,VWS V14.01,2013-01-19 14:12:00,
2013-01-19 09:18:00,32.4,30.1,30.50,NW,317,2.0,2.0,91,0.00,,---,0.00,VWS V14.01,2013-01-19 14:18:00,
2013-01-19 09:24:00,32.4,30.1,30.50,NW,318,1.0,2.0,91,0.00,,---,0.00,VWS V14.01,2013-01-19 14:24:00,
2013-01-19 09:30:00,32.9,30.8,30.50,NW,317,1.0,2.0,92,0.00,,---,0.00,VWS V14.01,2013-01-19 14:30:00,
2013-01-19 09:36:00,33.6,31.5,30.50,NW,305,1.0,1.0,92,0.00,,---,0.00,VWS V14.01,2013-01-19 14:36:00,
2013-01-19 09:42:00,34.4,32.3,30.50,NW,308,1.0,2.0,92,0.00,,---,0.00,VWS V14.01,2013-01-19 14:42:00,
2013-01-19 09:49:00,35.5,33.4,30.49,NW,308,1.0,2.0,92,0.00,,---,0.00,VWS V14.01,2013-01-19 14:49:00,
2013-01-19 09:55:00,36.5,33.6,30.50,NW,307,1.0,2.0,89,0.00,,---,0.00,VWS V14.01,2013-01-19 14:55:00,
2013-01-19 10:00:00,37.6,32.3,30.50,NW,307,0.0,2.0,81,0.00,,---,0.00,VWS V14.01,2013-01-19 15:00:00,
2013-01-19 10:07:00,39.0,32.4,30.49,NW,308,1.0,1.0,77,0.00,,---,0.00,VWS V14.01,2013-01-19 15:07:00,
2013-01-19 10:13:00,39.8,29.0,30.50,WNW,295,0.0,1.0,65,0.00,,---,0.00,VWS V14.01,2013-01-19 15:13:00,
2013-01-19 10:19:00,40.4,29.6,30.49,SW,219,1.0,1.0,65,0.00,,---,0.00,VWS V14.01,2013-01-19 15:19:00,
2013-01-19 10:25:00,41.1,29.1,30.49,WNW,294,0.0,1.0,62,0.00,,---,0.00,VWS V14.01,2013-01-19 15:25:00,
2013-01-19 10:30:00,41.7,29.7,30.49,WNW,293,0.0,1.0,62,0.00,,---,0.00,VWS V14.01,2013-01-19 15:30:00,
2013-01-19 10:37:00,42.2,27.2,30.48,WNW,293,1.0,3.0,55,0.00,,---,0.00,VWS V14.01,2013-01-19 15:37:00,
2013-01-19 10:43:00,42.6,27.6,30.48,NNW,345,1.0,3.0,55,0.00,,---,0.00,VWS V14.01,2013-01-19 15:43:00,
2013-01-19 10:49:00,43.2,27.7,30.49,NW,309,2.0,3.0,54,0.00,,---,0.00,VWS V14.01,2013-01-19 15:49:00,
2013-01-19 10:55:00,43.7,29.0,30.49,WSW,249,0.0,3.0,56,0.00,,---,0.00,VWS V14.01,2013-01-19 15:55:00,
2013-01-19 11:00:00,44.1,28.5,30.49,SW,214,0.0,4.0,54,0.00,,---,0.00,VWS V14.01,2013-01-19 16:00:00,
2013-01-19 11:01:00,44.2,29.5,30.48,SSE,165,1.0,2.0,56,0.00,,---,0.00,VWS V14.01,2013-01-19 16:01:00,
2013-01-19 11:07:00,44.9,31.9,30.48,SSW,204,0.0,3.0,60,0.00,,---,0.00,VWS V14.01,2013-01-19 16:07:00,
2013-01-19 11:13:00,45.6,31.7,30.48,SSE,150,1.0,6.0,58,0.00,,---,0.00,VWS V14.01,2013-01-19 16:13:00,
2013-01-19 11:19:00,45.9,32.0,30.48,WSW,245,1.0,6.0,58,0.00,,---,0.00,VWS V14.01,2013-01-19 16:19:00,
2013-01-19 11:25:00,46.1,30.9,30.47,WSW,245,2.0,6.0,55,0.00,,---,0.00,VWS V14.01,2013-01-19 16:25:00,
2013-01-19 11:30:00,46.4,31.1,30.47,WNW,297,2.0,6.0,55,0.00,,---,0.00,VWS V14.01,2013-01-19 16:30:00,
2013-01-19 11:31:00,46.5,30.8,30.47,WNW,297,1.0,2.0,54,0.00,,---,0.00,VWS V14.01,2013-01-19 16:31:00,
2013-01-19 11:38:00,46.8,31.5,30.46,SW,235,2.0,5.0,55,0.00,,---,0.00,VWS V14.01,2013-01-19 16:38:00,
2013-01-19 11:44:00,47.0,31.2,30.46,WSW,253,1.0,5.0,54,0.00,,---,0.00,VWS V14.01,2013-01-19 16:44:00,
2013-01-19 11:50:00,47.7,31.0,30.45,SE,143,0.0,5.0,52,0.00,,---,0.00,VWS V14.01,2013-01-19 16:50:00,
2013-01-19 11:56:00,47.7,30.5,30.45,SSW,205,2.0,5.0,51,0.00,,---,0.00,VWS V14.01,2013-01-19 16:56:00,
2013-01-19 12:00:00,47.7,31.9,30.45,SE,135,2.0,5.0,54,0.00,,---,0.00,VWS V14.01,2013-01-19 17:00:00,
2013-01-19 12:02:00,47.9,31.6,30.44,SSE,167,1.0,4.0,53,0.00,,---,0.00,VWS V14.01,2013-01-19 17:02:00,
2013-01-19 12:08:00,48.0,30.8,30.44,SE,143,3.0,4.0,51,0.00,,---,0.00,VWS V14.01,2013-01-19 17:08:00,
2013-01-19 12:17:00,48.2,30.9,30.43,SW,236,1.0,4.0,51,0.00,,---,0.00,VWS V14.01,2013-01-19 17:17:00,
2013-01-19 12:23:00,48.1,31.8,30.43,NW,312,0.0,5.0,53,0.00,,---,0.00,VWS V14.01,2013-01-19 17:23:00,
2013-01-19 12:29:00,48.3,32.0,30.42,South,184,1.0,5.0,53,0.00,,---,0.00,VWS V14.01,2013-01-19 17:29:00,
2013-01-19 12:30:00,48.3,32.0,30.42,SW,235,1.0,5.0,53,0.00,,---,0.00,VWS V14.01,2013-01-19 17:30:00,
2013-01-19 12:35:00,48.2,31.9,30.41,North,356,2.0,2.0,53,0.00,,---,0.00,VWS V14.01,2013-01-19 17:35:00,
2013-01-19 12:44:00,48.0,30.8,30.41,NNW,328,2.0,3.0,51,0.00,,---,0.00,VWS V14.01,2013-01-19 17:44:00,
2013-01-19 12:50:00,48.3,32.0,30.40,SSE,156,1.0,3.0,53,0.00,,---,0.00,VWS V14.01,2013-01-19 17:50:00,
2013-01-19 12:58:00,48.6,31.8,30.39,South,183,2.0,4.0,52,0.00,,---,0.00,VWS V14.01,2013-01-19 17:58:00,
2013-01-19 13:00:00,48.7,31.4,30.39,SSW,200,2.0,4.0,51,0.00,,---,0.00,VWS V14.01,2013-01-19 18:00:00,
2013-01-19 13:07:00,48.9,30.6,30.39,SE,134,1.0,3.0,49,0.00,,---,0.00,VWS V14.01,2013-01-19 18:07:00,
2013-01-19 13:13:00,49.1,30.8,30.38,East,84,1.0,4.0,49,0.00,,---,0.00,VWS V14.01,2013-01-19 18:13:00,
2013-01-19 13:19:00,49.2,31.9,30.38,SSE,168,2.0,4.0,51,0.00,,---,0.00,VWS V14.01,2013-01-19 18:19:00,
2013-01-19 13:26:00,49.8,31.9,30.38,SSW,212,1.0,4.0,50,0.00,,---,0.00,VWS V14.01,2013-01-19 18:26:00,
2013-01-19 13:30:00,50.0,32.1,30.37,WNW,296,0.0,7.0,50,0.00,,---,0.00,VWS V14.01,2013-01-19 18:30:00,
2013-01-19 13:32:00,50.1,32.2,30.37,South,185,1.0,2.0,50,0.00,,---,0.00,VWS V14.01,2013-01-19 18:32:00,
2013-01-19 13:38:00,50.0,32.6,30.36,NW,307,2.0,4.0,51,0.00,,---,0.00,VWS V14.01,2013-01-19 18:38:00,
2013-01-19 13:44:00,50.4,29.9,30.36,North,1,3.0,5.0,45,0.00,,---,0.00,VWS V14.01,2013-01-19 18:44:00,
2013-01-19 13:52:00,50.6,30.6,30.36,WSW,253,1.0,5.0,46,0.00,,---,0.00,VWS V14.01,2013-01-19 18:52:00,
2013-01-19 13:58:00,51.4,31.3,30.35,NW,304,0.0,5.0,46,0.00,,---,0.00,VWS V14.01,2013-01-19 18:58:00,
2013-01-19 14:00:00,51.7,31.6,30.35,SSW,195,1.0,5.0,46,0.00,,---,0.00,VWS V14.01,2013-01-19 19:00:00,
2013-01-19 14:05:00,52.1,31.4,30.35,NW,324,1.0,3.0,45,0.00,,---,0.00,VWS V14.01,2013-01-19 19:05:00,
2013-01-19 14:11:00,52.6,31.9,30.34,South,169,0.0,4.0,45,0.00,,---,0.00,VWS V14.01,2013-01-19 19:11:00,
2013-01-19 14:19:00,53.0,31.7,30.33,North,354,2.0,5.0,44,0.00,,---,0.00,VWS V14.01,2013-01-19 19:19:00,
2013-01-19 14:26:00,53.2,31.9,30.33,SE,128,1.0,5.0,44,0.00,,---,0.00,VWS V14.01,2013-01-19 19:26:00,
2013-01-19 14:30:00,53.6,32.2,30.33,South,190,2.0,5.0,44,0.00,,---,0.00,VWS V14.01,2013-01-19 19:30:00,
2013-01-19 14:32:00,53.8,31.9,30.33,SSW,197,1.0,3.0,43,0.00,,---,0.00,VWS V14.01,2013-01-19 19:32:00,
2013-01-19 14:38:00,53.9,31.4,30.33,SSW,212,1.0,4.0,42,0.00,,---,0.00,VWS V14.01,2013-01-19 19:38:00,
2013-01-19 14:44:00,54.7,32.1,30.32,WNW,295,1.0,4.0,42,0.00,,---,0.00,VWS V14.01,2013-01-19 19:44:00,
2013-01-19 14:50:00,55.0,30.5,30.32,SW,222,1.0,5.0,39,0.00,,---,0.00,VWS V14.01,2013-01-19 19:50:00,
2013-01-19 14:57:00,55.3,30.8,30.32,SW,235,4.0,6.0,39,0.00,,---,0.00,VWS V14.01,2013-01-19 19:57:00,
2013-01-19 15:00:00,55.3,30.1,30.32,WSW,242,2.0,6.0,38,0.00,,---,0.00,VWS V14.01,2013-01-19 20:00:00,
2013-01-19 15:03:00,55.5,29.7,30.32,South,191,3.0,4.0,37,0.00,,---,0.00,VWS V14.01,2013-01-19 20:03:00,
2013-01-19 15:09:00,55.6,32.3,30.31,SSW,200,1.0,4.0,41,0.00,,---,0.00,VWS V14.01,2013-01-19 20:09:00,
2013-01-19 15:20:00,55.7,29.9,30.31,SSE,163,1.0,5.0,37,0.00,,---,0.00,VWS V14.01,2013-01-19 20:20:00,
2013-01-19 15:30:00,55.9,30.0,30.31,SW,217,1.0,5.0,37,0.00,,---,0.00,VWS V14.01,2013-01-19 20:30:00,
2013-01-19 15:38:00,55.5,29.0,30.31,South,181,1.0,4.0,36,0.00,,---,0.00,VWS V14.01,2013-01-19 20:38:00,
2013-01-19 15:45:00,55.8,29.9,30.30,SSW,212,1.0,4.0,37,0.00,,---,0.00,VWS V14.01,2013-01-19 20:45:00,
2013-01-19 15:53:00,56.2,28.9,30.30,WSW,250,0.0,4.0,35,0.00,,---,0.00,VWS V14.01,2013-01-19 20:53:00,
2013-01-19 15:59:00,56.1,28.1,30.30,South,172,0.0,5.0,34,0.00,,---,0.00,VWS V14.01,2013-01-19 20:59:00,
2013-01-19 16:00:00,56.1,28.8,30.30,WSW,237,1.0,5.0,35,0.00,,---,0.00,VWS V14.01,2013-01-19 21:00:00,
2013-01-19 16:06:00,56.1,28.1,30.30,SSW,193,0.0,4.0,34,0.00,,---,0.00,VWS V14.01,2013-01-19 21:06:00,
2013-01-19 16:12:00,55.3,28.8,30.30,NW,319,3.0,4.0,36,0.00,,---,0.00,VWS V14.01,2013-01-19 21:12:00,
2013-01-19 16:18:00,54.6,29.5,30.30,WNW,302,2.0,4.0,38,0.00,,---,0.00,VWS V14.01,2013-01-19 21:18:00,
2013-01-19 16:27:00,54.3,28.6,30.30,SW,228,0.0,5.0,37,0.00,,---,0.00,VWS V14.01,2013-01-19 21:27:00,
2013-01-19 16:30:00,54.2,29.2,30.30,WSW,257,1.0,5.0,38,0.00,,---,0.00,VWS V14.01,2013-01-19 21:30:00,
2013-01-19 16:35:00,54.2,29.8,30.30,West,269,1.0,2.0,39,0.00,,---,0.00,VWS V14.01,2013-01-19 21:35:00,
2013-01-19 16:41:00,54.5,30.7,30.30,West,269,1.0,2.0,40,0.00,,---,0.00,VWS V14.01,2013-01-19 21:41:00,
2013-01-19 16:52:00,54.1,30.3,30.30,West,259,0.0,3.0,40,0.00,,---,0.00,VWS V14.01,2013-01-19 21:52:00,
2013-01-19 16:58:00,53.3,30.2,30.29,West,271,1.0,4.0,41,0.00,,---,0.00,VWS V14.01,2013-01-19 21:58:00,
2013-01-19 17:00:00,52.9,31.0,30.29,SE,136,0.0,4.0,43,0.00,,---,0.00,VWS V14.01,2013-01-19 22:00:00,
2013-01-19 17:06:00,51.9,31.2,30.29,SSE,166,0.0,4.0,45,0.00,,---,0.00,VWS V14.01,2013-01-19 22:06:00,
2013-01-19 17:13:00,51.0,31.5,30.29,SW,236,0.0,4.0,47,0.00,,---,0.00,VWS V14.01,2013-01-19 22:13:00,
2013-01-19 17:19:00,50.2,31.3,30.29,SE,144,0.0,4.0,48,0.00,,---,0.00,VWS V14.01,2013-01-19 22:19:00,
2013-01-19 17:25:00,49.4,31.6,30.29,SE,134,0.0,4.0,50,0.00,,---,0.00,VWS V14.01,2013-01-19 22:25:00,
2013-01-19 17:30:00,48.9,31.6,30.29,SE,134,0.0,4.0,51,0.00,,---,0.00,VWS V14.01,2013-01-19 22:30:00,
2013-01-19 17:34:00,48.5,31.2,30.29,SE,134,0.0,0.0,51,0.00,,---,0.00,VWS V14.01,2013-01-19 22:34:00,
2013-01-19 17:40:00,48.0,31.2,30.28,SE,134,0.0,1.0,52,0.00,,---,0.00,VWS V14.01,2013-01-19 22:40:00,
2013-01-19 17:46:00,47.4,31.1,30.29,SE,133,0.0,1.0,53,0.00,,---,0.00,VWS V14.01,2013-01-19 22:46:00,
2013-01-19 17:52:00,46.9,31.1,30.28,SE,134,0.0,1.0,54,0.00,,---,0.00,VWS V14.01,2013-01-19 22:52:00,
2013-01-19 17:58:00,46.3,31.0,30.29,SE,134,0.0,1.0,55,0.00,,---,0.00,VWS V14.01,2013-01-19 22:58:00,
2013-01-19 18:00:00,44.0,29.3,30.30,SSE,148,0.0,1.0,56,0.00,,---,0.00,VWS V14.01,2013-01-19 23:00:00,
2013-01-19 18:05:00,45.8,31.0,30.29,SE,134,0.0,1.0,56,0.00,,---,0.00,VWS V14.01,2013-01-19 23:05:00,
2013-01-19 18:11:00,45.3,31.0,30.29,SE,134,0.0,1.0,57,0.00,,---,0.00,VWS V14.01,2013-01-19 23:11:00,
2013-01-19 18:17:00,44.8,30.5,30.29,SE,134,0.0,1.0,57,0.00,,---,0.00,VWS V14.01,2013-01-19 23:17:00,
2013-01-19 18:23:00,44.6,30.3,30.29,SE,134,0.0,1.0,57,0.00,,---,0.00,VWS V14.01,2013-01-19 23:23:00,
2013-01-19 18:30:00,44.7,30.4,30.29,SE,134,0.0,1.0,57,0.00,,---,0.00,VWS V14.01,2013-01-19 23:30:00,
2013-01-19 18:38:00,44.5,30.2,30.29,SE,134,0.0,0.0,57,0.00,,---,0.00,VWS V14.01,2013-01-19 23:38:00,
2013-01-19 18:44:00,44.5,30.2,30.29,SSE,148,0.0,1.0,57,0.00,,---,0.00,VWS V14.01,2013-01-19 23:44:00,
2013-01-19 18:50:00,44.6,30.3,30.30,SSE,148,0.0,1.0,57,0.00,,---,0.00,VWS V14.01,2013-01-19 23:50:00,
2013-01-19 18:56:00,44.2,30.0,30.30,SSE,148,0.0,1.0,57,0.00,,---,0.00,VWS V14.01,2013-01-19 23:56:00,
2013-01-19 19:00:00,44.0,29.3,30.30,SSE,148,0.0,1.0,56,0.00,,---,0.00,VWS V14.01,2013-01-20 00:00:00,
2013-01-19 19:03:00,44.0,29.8,30.30,SSE,148,0.0,0.0,57,0.00,,---,0.00,VWS V14.01,2013-01-20 00:03:00,
2013-01-19 19:09:00,44.1,29.4,30.30,WSW,247,0.0,1.0,56,0.00,,---,0.00,VWS V14.01,2013-01-20 00:09:00,
2013-01-19 19:15:00,44.1,29.4,30.30,WSW,248,0.0,1.0,56,0.00,,---,0.00,VWS V14.01,2013-01-20 00:15:00,
2013-01-19 19:21:00,43.9,28.8,30.30,WSW,248,0.0,1.0,55,0.00,,---,0.00,VWS V14.01,2013-01-20 00:21:00,
2013-01-19 19:27:00,43.8,29.1,30.30,WSW,248,0.0,1.0,56,0.00,,---,0.00,VWS V14.01,2013-01-20 00:27:00,
2013-01-19 19:30:00,43.8,29.1,30.30,WSW,247,0.0,1.0,56,0.00,,---,0.00,VWS V14.01,2013-01-20 00:30:00,
2013-01-19 19:38:00,43.8,29.1,30.30,WSW,247,0.0,1.0,56,0.00,,---,0.00,VWS V14.01,2013-01-20 00:38:00,
2013-01-19 19:44:00,43.7,29.0,30.30,WSW,247,0.0,1.0,56,0.00,,---,0.00,VWS V14.01,2013-01-20 00:44:00,
2013-01-19 19:50:00,43.8,29.1,30.30,WSW,248,1.0,1.0,56,0.00,,---,0.00,VWS V14.01,2013-01-20 00:50:00,
2013-01-19 19:59:00,44.0,28.9,30.30,WSW,248,0.0,1.0,55,0.00,,---,0.00,VWS V14.01,2013-01-20 00:59:00,
2013-01-19 20:00:00,44.0,28.9,30.30,WNW,283,0.0,2.0,55,0.00,,---,0.00,VWS V14.01,2013-01-20 01:00:00,
2013-01-19 20:05:00,44.0,28.9,30.30,West,281,0.0,1.0,55,0.00,,---,0.00,VWS V14.01,2013-01-20 01:05:00,
2013-01-19 20:11:00,43.9,28.8,30.30,West,281,0.0,1.0,55,0.00,,---,0.00,VWS V14.01,2013-01-20 01:11:00,
2013-01-19 20:17:00,43.8,29.1,30.29,West,281,0.0,1.0,56,0.00,,---,0.00,VWS V14.01,2013-01-20 01:17:00,
2013-01-19 20:23:00,43.7,29.0,30.29,West,281,0.0,1.0,56,0.00,,---,0.00,VWS V14.01,2013-01-20 01:23:00,
2013-01-19 20:29:00,43.7,29.0,30.29,West,281,0.0,1.0,56,0.00,,---,0.00,VWS V14.01,2013-01-20 01:29:00,
2013-01-19 20:30:00,43.7,29.0,30.29,West,281,0.0,1.0,56,0.00,,---,0.00,VWS V14.01,2013-01-20 01:30:00,
2013-01-19 20:36:00,43.6,29.0,30.29,West,280,0.0,1.0,56,0.00,,---,0.00,VWS V14.01,2013-01-20 01:36:00,
2013-01-19 20:42:00,43.7,29.0,30.29,WSW,245,0.0,2.0,56,0.00,,---,0.00,VWS V14.01,2013-01-20 01:42:00,
2013-01-19 20:48:00,43.7,29.0,30.29,West,259,0.0,2.0,56,0.00,,---,0.00,VWS V14.01,2013-01-20 01:48:00,
2013-01-19 20:57:00,43.7,29.5,30.29,West,259,1.0,2.0,57,0.00,,---,0.00,VWS V14.01,2013-01-20 01:57:00,
2013-01-19 21:00:00,43.7,29.5,30.28,West,260,0.0,2.0,57,0.00,,---,0.00,VWS V14.01,2013-01-20 02:00:00,
2013-01-19 21:05:00,43.6,29.4,30.28,West,260,0.0,1.0,57,0.00,,---,0.00,VWS V14.01,2013-01-20 02:05:00,
2013-01-19 21:11:00,43.2,29.0,30.28,West,270,0.0,1.0,57,0.00,,---,0.00,VWS V14.01,2013-01-20 02:11:00,
2013-01-19 21:18:00,42.9,29.2,30.28,West,270,0.0,1.0,58,0.00,,---,0.00,VWS V14.01,2013-01-20 02:18:00,
2013-01-19 21:24:00,42.7,29.0,30.28,West,265,0.0,1.0,58,0.00,,---,0.00,VWS V14.01,2013-01-20 02:24:00,
2013-01-19 21:30:00,42.5,29.2,30.28,West,265,0.0,1.0,59,0.00,,---,0.00,VWS V14.01,2013-01-20 02:30:00,
2013-01-19 21:38:00,42.2,29.3,30.28,West,263,0.0,1.0,60,0.00,,---,0.00,VWS V14.01,2013-01-20 02:38:00,
2013-01-19 21:44:00,42.1,29.2,30.27,West,260,1.0,1.0,60,0.00,,---,0.00,VWS V14.01,2013-01-20 02:44:00,
2013-01-19 21:53:00,41.9,29.0,30.27,West,260,1.0,1.0,60,0.00,,---,0.00,VWS V14.01,2013-01-20 02:53:00,
2013-01-19 21:59:00,42.0,29.1,30.27,WSW,256,1.0,2.0,60,0.00,,---,0.00,VWS V14.01,2013-01-20 02:59:00,
2013-01-19 22:00:00,42.0,29.1,30.27,WSW,256,0.0,2.0,60,0.00,,---,0.00,VWS V14.01,2013-01-20 03:00:00,
2013-01-19 22:05:00,42.1,29.2,30.27,South,174,1.0,2.0,60,0.00,,---,0.00,VWS V14.01,2013-01-20 03:05:00,
2013-01-19 22:11:00,42.5,29.2,30.27,SW,236,1.0,3.0,59,0.00,,---,0.00,VWS V14.01,2013-01-20 03:11:00,
2013-01-19 22:20:00,42.8,29.1,30.27,WSW,245,1.0,3.0,58,0.00,,---,0.00,VWS V14.01,2013-01-20 03:20:00,
2013-01-19 22:28:00,43.0,29.2,30.27,WSW,245,0.0,4.0,58,0.00,,---,0.00,VWS V14.01,2013-01-20 03:28:00,
2013-01-19 22:30:00,42.9,29.2,30.27,WNW,299,1.0,4.0,58,0.00,,---,0.00,VWS V14.01,2013-01-20 03:30:00,
2013-01-19 22:34:00,42.9,29.2,30.27,West,278,0.0,2.0,58,0.00,,---,0.00,VWS V14.01,2013-01-20 03:34:00,
2013-01-19 22:40:00,42.7,29.4,30.27,West,271,0.0,2.0,59,0.00,,---,0.00,VWS V14.01,2013-01-20 03:40:00,
2013-01-19 22:55:00,42.4,29.5,30.26,WSW,253,0.0,5.0,60,0.00,,---,0.00,VWS V14.01,2013-01-20 03:55:00,
2013-01-19 23:00:00,42.2,29.3,30.26,WSW,252,1.0,5.0,60,0.00,,---,0.00,VWS V14.01,2013-01-20 04:00:00,
2013-01-19 23:01:00,42.2,29.3,30.26,West,262,0.0,1.0,60,0.00,,---,0.00,VWS V14.01,2013-01-20 04:01:00,
2013-01-19 23:08:00,41.9,29.0,30.26,West,260,1.0,2.0,60,0.00,,---,0.00,VWS V14.01,2013-01-20 04:08:00,
2013-01-19 23:14:00,41.8,29.4,30.26,WSW,257,0.0,2.0,61,0.00,,---,0.00,VWS V14.01,2013-01-20 04:14:00,
2013-01-19 23:20:00,41.5,29.1,30.26,WSW,257,0.0,2.0,61,0.00,,---,0.00,VWS V14.01,2013-01-20 04:20:00,
2013-01-19 23:26:00,41.4,29.4,30.25,NW,307,2.0,2.0,62,0.00,,---,0.00,VWS V14.01,2013-01-20 04:26:00,
2013-01-19 23:30:00,41.0,29.8,30.25,North,350,0.0,2.0,64,0.00,,---,0.00,VWS V14.01,2013-01-20 04:30:00,
2013-01-19 23:32:00,40.8,29.2,30.25,North,349,0.0,1.0,63,0.00,,---,0.00,VWS V14.01,2013-01-20 04:32:00,
2013-01-19 23:43:00,41.1,29.1,30.24,WSW,253,0.0,2.0,62,0.00,,---,0.00,VWS V14.01,2013-01-20 04:43:00,
2013-01-19 23:49:00,41.2,29.2,30.24,West,278,0.0,3.0,62,0.00,,---,0.00,VWS V14.01,2013-01-20 04:49:00,
2013-01-19 23:57:00,41.2,29.2,30.24,WSW,253,2.0,3.0,62,0.00,,---,0.00,VWS V14.01,2013-01-20 04:57:00,